Temp
72 72 71 72 74 75 76 76 75 76 76 78 77 77 75 75 71 69 68 71 71 76 80 75 77 80 79 76 76 74 75 68 66 73 71 69 67 57 55 55 55 55 54 54 54 52 52 52 53 56 57 57 57 56 55 54 54 54 56 56 56 56 56 55 54 58 58 59 58 56 56 56 56 56
75 73 72 72 72 73 75 77 77 75 75 75 77 78 80 79 74 72 69 69 74 74 78 79 77 79 78 77 75 76 76 65 69 76 74 71 69 54 55 53 52 52 53 52 52 51 52 53 54 57 56 56 54 53 53 53 52 53 56 56 55 56 56 55 56 58 58 57 57 57 56 56 56 56
74 74 73 73 73 72 75 76 77 77 75 76 79 79 81 78 78 74 75 69 73 78 74 78 81 79 79 79 76 78 77 69 70 75 74 76 62 56 58 53 53 53 52 51 51 51 52 51 51 53 55 55 54 54 55 53 53 55 56 54 54 56 56 55 56 58 58 57 57 57 56 56 55 56
75 73 72 75 73 72 75 75 76 77 78 78 78 78 77 78 79 77 76 72 70 77 77 78 80 81 78 80 77 78 78 72 64 77 76 73 58 66 68 53 54 54 53 52 53 56 56 52 53 53 54 54 54 54 53 52 55 54 52 52 53 54 55 55 54 57 57 56 56 56 55 55 55 55
77 77 77 75 74 74 76 76 76 76 78 78 77 79 79 79 78 78 76 73 71 75 78 78 80 80 79 78 80 78 77 72 73 71 77 70 70 71 73 68 54 53 53 52 51 52 52 51 54 54 52 52 51 52 50 52 52 51 49 50 50 51 54 55 53 53 55 55 55 54 54 53 54 55
78 76 75 76 75 76 77 75 77 79 79 79 80 81 79 79 78 79 79 75 72 70 75 76 81 79 80 78 81 77 75 72 74 76 77 75 76 76 75 75 67 53 53 52 51 52 52 50 51 50 48 48 49 50 49 48 48 51 48 46 48 53 53 54 53 52 52 53 53 52 52 52 53 54
77 76 75 75 75 75 74 74 76 78 79 80 82 80 81 79 78 80 82 76 73 71 73 76 77 77 78 77 79 81 79 77 77 76 77 78 78 79 77 77 77 54 53 51 51 52 50 50 50 48 49 48 48 49 49 48 48 47 47 46 49 48 48 48 46 46 48 51 52 51 51 52 53 55
76 76 73 74 75 75 74 75 76 78 79 78 82 80 80 79 78 79 78 79 75 74 72 74 79 79 76 77 82 82 81 78 77 78 79 79 80 80 81 79 81 62 52 52 52 51 51 49 49 48 48 48 48 48 48 48 47 47 47 47 47 47 47 46 40 40 44 46 47 50 51 51 53 55
77 75 74 75 76 75 74 74 76 79 77 81 81 79 81 80 79 79 78 79 79 75 73 73 77 79 78 80 80 83 80 79 79 80 79 80 80 80 81 81 72 55 51 51 50 50 49 49 48 48 48 48 48 47 48 48 48 48 48 48 47 46 47 45 44 43 44 44 45 50 50 50 52 54
79 76 75 73 76 76 73 73 75 77 77 80 79 79 80 81 79 76 77 78 77 78 78 75 72 77 78 77 78 81 81 79 78 78 79 80 80 80 79 76 70 68 64 62 59 51 50 48 48 48 48 48 47 47 48 48 48 48 48 47 47 47 46 46 46 46 45 46 45 45 47 49 50 52
79 79 79 77 75 74 72 71 75 76 76 77 78 78 78 81 78 76 76 78 77 75 76 77 76 75 77 77 75 80 82 81 80 76 75 75 80 78 76 76 74 71 68 62 54 57 58 55 55 49 47 47 48 48 48 48 48 48 46 46 46 46 46 46 46 46 45 46 45 44 44 45 47 50
80 80 79 79 78 78 77 74 74 76 75 77 77 78 79 78 77 74 75 75 76 75 74 74 75 77 75 76 77 82 81 78 78 79 77 73 73 73 75 76 75 75 71 68 66 58 56 54 53 46 48 48 48 48 48 48 49 47 46 46 46 46 46 46 47 46 46 46 45 45 44 43 44 46
78 79 79 79 77 69 61 55 58 60 63 76 75 76 78 77 76 76 76 75 75 75 74 74 75 75 75 75 74 73 74 74 75 76 75 73 75 77 75 75 76 78 74 70 71 68 65 64 61 61 60 58 50 51 51 52 48 47 46 46 46 47 46 46 46 46 46 46 46 45 44 43 43 43
77 78 78 72 58 58 58 56 52 52 52 53 62 71 75 76 75 75 74 74 75 73 73 73 73 72 72 74 74 74 74 76 76 75 74 72 75 75 74 74 76 78 76 74 72 72 69 67 65 64 63 62 56 59 57 60 55 49 46 46 47 47 46 46 46 46 46 45 45 45 45 44 44 43
75 76 78 76 68 67 64 66 49 49 50 48 47 46 48 55 67 73 73 73 74 73 73 74 73 73 72 73 75 75 75 74 74 73 73 73 72 71 70 68 72 77 75 72 71 71 72 68 69 68 67 65 59 63 62 54 51 48 46 47 47 47 46 46 46 46 45 45 45 44 44 44 44 42
76 76 76 77 75 76 75 76 71 62 51 50 50 48 45 45 44 49 65 70 71 72 72 72 72 73 72 74 74 74 74 74 74 73 73 72 71 69 69 68 67 74 74 70 69 68 73 71 69 69 71 69 62 66 58 50 49 47 47 47 47 46 47 46 46 45 46 45 44 44 44 44 44 42
78 77 76 76 76 78 65 72 76 76 69 48 39 43 46 47 47 48 47 49 63 70 69 71 71 73 74 73 74 74 74 75 72 73 72 72 71 70 69 69 71 73 72 70 68 67 71 73 69 67 69 71 65 57 49 49 47 47 47 47 47 46 46 46 45 45 44 44 44 44 44 43 43 43
75 75 76 75 75 76 74 76 76 76 76 73 69 70 73 75 66 49 45 44 42 50 66 70 69 72 73 72 73 74 76 73 71 71 71 71 70 70 69 72 72 74 72 69 68 66 69 72 70 66 69 72 64 61 52 46 47 47 47 46 47 45 46 45 45 45 44 44 44 44 44 43 42 42
75 75 74 74 74 75 73 59 58 73 74 75 74 73 74 74 74 75 75 72 73 72 71 72 73 73 74 73 72 74 72 74 74 74 73 72 72 72 73 68 71 71 73 72 69 64 69 72 70 68 69 70 70 63 48 46 46 47 46 46 45 46 45 45 45 44 44 44 44 44 43 42 42 41
75 75 75 75 74 74 62 49 40 45 64 71 72 71 73 74 74 75 69 65 68 72 74 75 75 75 65 52 65 66 70 74 74 74 74 74 71 70 68 67 69 68 72 72 69 65 67 71 69 69 70 70 69 64 56 47 47 46 46 46 46 45 45 45 45 44 44 44 44 43 43 43 42 41
75 73 73 72 74 67 59 41 39 39 48 69 70 71 71 72 73 73 76 58 53 54 51 48 44 41 42 46 46 45 47 62 68 72 71 67 70 66 64 66 67 67 70 70 69 67 65 68 68 67 68 68 68 68 59 55 47 46 46 46 45 45 45 45 45 45 44 44 44 44 43 43 42 41
71 61 51 63 68 62 53 39 39 38 52 67 69 69 69 69 69 72 73 70 64 53 52 51 48 45 44 42 41 42 43 44 53 71 66 66 63 63 60 57 64 67 66 63 68 64 63 66 67 65 67 67 68 68 66 56 51 45 45 45 45 45 45 44 45 44 44 44 44 44 43 43 42 48
71 62 50 45 49 50 44 37 39 38 48 61 65 66 66 66 67 68 67 66 64 63 65 66 66 62 57 59 61 62 51 46 50 65 69 70 66 63 60 59 59 65 64 67 66 62 63 63 64 66 64 59 65 67 65 55 56 54 56 53 50 45 44 44 44 44 44 45 44 44 43 43 42 50
73 63 55 47 38 38 37 38 38 39 38 51 58 60 63 64 64 60 60 63 64 64 63 64 64 64 66 68 67 66 66 62 60 63 66 67 67 65 66 65 59 57 65 66 65 64 65 65 64 68 64 58 52 63 65 57 58 58 58 58 55 47 44 44 45 43 44 44 43 43 43 43 43 50
69 71 62 56 39 37 37 38 37 38 37 39 51 57 61 60 50 49 60 60 53 63 63 63 63 64 66 67 68 68 68 65 63 61 62 64 65 65 64 61 63 65 67 66 57 65 62 64 62 64 63 63 62 61 61 63 64 62 62 61 60 55 53 54 52 54 46 43 42 42 42 43 42 45
65 65 64 59 44 38 39 38 37 37 38 37 47 54 45 40 40 50 53 57 61 63 64 65 63 64 64 66 64 61 60 62 65 63 62 61 62 64 63 59 59 59 61 63 52 64 62 62 63 62 62 62 61 61 59 60 62 63 62 62 61 59 57 57 58 60 59 52 51 46 47 44 43 43
58 60 61 55 42 39 39 39 39 38 37 39 49 42 39 39 37 41 55 57 57 60 62 62 63 64 66 66 63 60 59 59 61 62 62 60 61 61 61 58 60 60 61 62 61 61 62 59 64 62 60 61 57 58 58 57 58 63 62 60 59 60 60 61 59 60 60 58 55 45 45 44 43 43
56 57 51 47 39 40 40 40 39 38 38 43 40 38 37 37 39 50 55 56 57 57 59 59 61 61 63 64 64 64 64 64 64 60 63 63 63 64 63 62 59 62 63 62 63 62 61 59 61 62 62 59 57 56 56 61 61 62 60 62 62 62 61 59 59 58 57 57 56 52 50 52 52 47
58 46 41 41 42 41 39 38 38 40 41 40 38 37 37 38 49 52 53 53 54 54 55 57 59 61 62 63 64 67 68 68 66 61 64 65 65 64 62 61 60 59 60 61 62 62 60 56 57 58 58 59 58 58 58 58 60 60 60 59 57 60 60 61 60 58 55 56 55 54 54 53 52 54
36 37 40 39 38 39 42 46 50 53 55 45 41 40 39 49 54 56 58 59 58 59 60 60 61 63 66 67 68 68 69 67 67 64 62 61 60 59 56 54 53 55 54 55 57 57 57 56 58 58 56 58 58 57 58 58 56 58 57 57 58 58 57 59 59 57 54 53 53 53 54 54 53 53
53 51 47 51 46 46 44 43 43 45 46 52 54 56 56 58 59 60 60 61 61 61 61 61 63 65 66 67 66 66 65 63 64 64 60 60 58 58 58 56 54 53 54 53 51 52 55 56 54 54 52 55 57 56 58 57 55 56 56 57 55 51 57 58 56 55 55 53 53 53 53 53 52 51
53 53 48 49 54 55 55 55 57 57 57 57 56 61 64 62 60 58 54 53 60 61 61 61 61 59 60 61 62 63 63 63 63 64 61 60 59 58 56 51 49 51 51 52 53 53 49 54 53 54 54 54 53 55 57 56 54 54 54 54 54 55 54 53 52 53 54 53 50 50 51 52 52 52
50 53 55 56 58 60 55 56 60 61 62 60 62 62 61 62 62 61 62 61 61 60 58 57 57 57 58 58 59 59 60 60 61 62 60 60 58 55 55 53 53 51 50 50 51 51 51 50 50 50 50 51 52 51 51 49 52 54 53 54 53 51 52 52 51 51 52 50 48 49 49 52 53 51
45 48 53 55 57 53 57 53 55 53 56 53 54 55 52 55 60 60 60 61 61 60 53 55 52 50 51 52 55 56 56 57 59 58 53 57 58 53 52 51 51 51 50 48 48 46 46 46 46 45 48 47 49 48 47 47 47 50 53 51 51 49 50 51 51 51 50 48 47 46 48 50 52 50
49 53 54 52 54 54 56 53 54 51 54 54 54 54 56 58 56 55 58 59 55 55 54 52 48 49 49 47 50 52 51 51 52 52 52 53 52 51 50 47 48 48 48 46 47 48 48 45 45 45 47 47 48 49 49 51 50 50 51 50 50 49 49 50 50 50 50 49 49 45 46 48 49 49
53 54 53 50 51 51 54 53 53 55 53 53 51 53 53 54 53 55 53 54 57 53 53 52 51 51 50 50 48 48 47 47 49 50 45 47 47 47 49 49 48 49 49 49 49 50 49 48 48 47 43 44 43 43 42 46 46 50 49 45 49 49 49 50 50 50 49 48 49 47 44 42 48 50
54 51 53 55 56 55 53 50 54 53 53 53 52 52 51 50 53 56 55 49 56 52 52 49 50 50 50 49 48 47 46 44 44 44 45 45 47 44 43 44 44 48 48 49 50 50 50 48 48 46 45 43 43 43 42 41 43 45 49 48 45 48 48 48 47 46 48 49 49 49 45 42 44 49
55 56 55 55 57 56 54 53 51 49 50 50 50 50 51 52 54 55 56 56 53 52 51 49 48 48 47 47 47 47 46 46 45 44 44 43 43 43 43 42 42 44 47 47 48 48 48 48 47 47 46 43 42 44 41 43 44 46 45 49 45 45 47 46 45 45 45 50 48 49 50 47 43 47
57 54 54 54 55 55 53 52 50 50 51 51 50 49 48 51 51 51 49 48 50 49 48 47 47 46 44 45 45 44 44 44 44 45 43 44 43 41 41 40 43 46 45 42 46 47 48 49 50 51 50 46 43 41 43 43 42 46 45 41 48 45 45 43 45 47 47 45 49 51 47 44 44 39
54 54 53 53 52 52 52 51 51 51 49 50 50 51 50 49 49 48 46 45 45 44 45 46 45 44 43 45 44 44 44 43 44 44 44 42 43 42 42 43 43 41 40 43 44 47 49 49 49 48 49 49 44 45 46 46 47 48 47 41 39 43 43 41 43 44 45 49 50 47 47 46 43 44
51 52 52 51 51 51 49 50 49 48 48 49 49 46 49 49 48 45 47 45 43 45 45 45 42 41 43 42 42 42 39 39 39 40 40 40 39 40 39 41 44 44 44 43 45 46 48 44 41 38 45 44 44 45 44 43 42 45 46 46 39 37 39 42 47 45 42 45 47 45 45 45 46 45
50 49 50 50 49 49 48 47 47 47 47 47 47 44 48 44 46 43 46 43 43 43 44 43 43 41 40 40 40 40 38 37 36 36 36 38 39 40 40 41 43 43 44 42 43 44 47 47 46 47 45 45 46 43 41 42 42 44 45 45 43 39 36 36 37 40 46 43 44 43 44 45 46 44
48 48 47 48 47 47 47 47 48 48 45 47 47 45 46 47 45 44 45 44 44 43 42 42 41 40 40 39 39 39 38 38 37 37 36 37 38 38 39 41 42 42 43 43 43 42 44 46 48 45 46 46 45 44 41 42 43 45 44 44 42 43 43 38 37 37 37 38 39 40 43 43 41 39
47 47 47 48 47 46 46 47 48 49 47 44 46 47 46 45 43 42 43 43 43 42 42 42 41 40 39 40 40 39 38 38 38 38 38 39 39 39 39 40 40 40 42 42 43 44 45 46 46 46 44 44 45 44 43 42 44 45 46 45 43 42 43 44 44 40 39 39 37 36 35 35 37 37
46 47 48 47 44 45 44 45 43 48 47 46 46 45 44 44 43 43 42 42 42 42 41 41 40 40 40 39 38 37 38 38 39 39 40 39 40 40 41 41 41 41 42 43 43 43 45 45 45 46 45 46 46 45 44 44 44 44 44 44 41 43 45 44 44 44 46 46 43 38 37 35 35 34
MSLP
1020.14 1020.34 1020.38 1020.46 1020.34 1020.34 1020.18 1020.30 1020.58 1020.46 1020.54 1020.38 1020.70 1020.78 1020.86 1021.10 1021.98 1022.58 1022.82 1022.50 1022.78 1022.42 1022.26 1023.06 1023.14 1023.06 1023.38 1023.74 1024.14 1024.50 1024.74 1025.22 1025.42 1025.34 1025.58 1025.94 1026.22 1026.62 1026.74 1026.82 1026.90 1026.98 1027.02 1027.06 1027.18 1027.22 1027.26 1027.22 1027.22 1027.22 1027.26 1027.26 1027.22 1027.22 1027.26 1027.26 1027.22 1027.26 1027.26 1027.22 1027.18 1027.14 1027.10 1027.02 1026.98 1026.90 1026.86 1026.78 1026.78 1026.82 1026.78 1026.70 1026.62 1026.50
1019.50 1019.86 1020.34 1020.58 1020.58 1020.30 1020.18 1019.98 1019.94 1020.30 1020.50 1020.74 1020.66 1020.50 1019.98 1020.14 1021.26 1021.82 1022.46 1022.78 1022.30 1022.46 1022.14 1022.26 1023.06 1023.02 1023.34 1023.58 1024.02 1024.18 1024.46 1025.06 1025.10 1024.82 1025.18 1025.58 1025.94 1026.46 1026.58 1026.70 1026.78 1026.86 1026.94 1027.02 1027.06 1027.18 1027.22 1027.18 1027.18 1027.22 1027.26 1027.26 1027.26 1027.26 1027.22 1027.22 1027.22 1027.22 1027.22 1027.26 1027.26 1027.22 1027.18 1027.18 1027.10 1026.98 1026.98 1026.98 1026.94 1026.90 1026.86 1026.82 1026.74 1026.62
1019.62 1019.74 1020.02 1020.14 1020.34 1020.46 1020.22 1020.06 1019.98 1020.02 1020.58 1020.62 1020.42 1020.26 1019.90 1020.30 1020.02 1021.26 1021.38 1022.74 1022.26 1021.74 1022.58 1022.06 1022.22 1022.82 1023.10 1023.34 1023.70 1023.82 1024.06 1024.74 1024.90 1024.62 1024.82 1025.02 1025.62 1026.14 1026.34 1026.46 1026.58 1026.66 1026.74 1026.86 1026.98 1027.10 1027.14 1027.18 1027.22 1027.22 1027.26 1027.30 1027.26 1027.26 1027.22 1027.18 1027.18 1027.18 1027.18 1027.22 1027.26 1027.26 1027.26 1027.30 1027.26 1027.14 1027.10 1027.14 1027.06 1027.02 1027.02 1026.94 1026.82 1026.70
1019.34 1019.78 1019.98 1019.82 1020.06 1020.26 1020.06 1020.14 1020.10 1020.14 1020.14 1020.22 1020.38 1020.34 1020.30 1020.38 1020.30 1020.74 1020.98 1021.98 1022.66 1021.90 1022.02 1021.94 1022.14 1022.42 1022.98 1023.10 1023.58 1023.62 1023.82 1024.42 1024.70 1024.38 1024.42 1024.66 1025.42 1025.70 1025.82 1026.22 1026.26 1026.38 1026.50 1026.66 1026.78 1026.90 1026.98 1027.10 1027.14 1027.18 1027.22 1027.26 1027.22 1027.18 1027.18 1027.18 1027.14 1027.14 1027.14 1027.18 1027.22 1027.22 1027.26 1027.30 1027.34 1027.26 1027.26 1027.26 1027.22 1027.18 1027.14 1027.06 1026.94 1026.82
1018.98 1019.18 1019.38 1019.62 1019.90 1019.94 1019.86 1020.02 1020.14 1020.34 1020.26 1020.26 1020.30 1019.90 1020.10 1020.30 1020.62 1020.62 1020.90 1021.74 1022.38 1022.14 1021.66 1021.94 1022.02 1022.22 1022.66 1023.14 1023.14 1023.46 1023.62 1024.34 1024.46 1024.26 1024.10 1024.66 1024.98 1025.06 1025.06 1025.46 1025.86 1025.94 1026.10 1026.26 1026.46 1026.66 1026.78 1026.86 1026.94 1027.02 1027.10 1027.14 1027.14 1027.14 1027.14 1027.10 1027.10 1027.10 1027.14 1027.18 1027.26 1027.30 1027.30 1027.30 1027.34 1027.34 1027.34 1027.34 1027.30 1027.30 1027.22 1027.14 1027.06 1026.90
1018.90 1019.10 1019.42 1019.42 1019.78 1019.74 1019.82 1020.18 1020.26 1020.06 1020.18 1020.38 1020.02 1019.86 1020.26 1020.54 1020.70 1020.30 1020.26 1021.22 1022.14 1022.78 1022.26 1022.22 1021.70 1022.18 1022.38 1022.86 1022.70 1023.14 1023.50 1024.02 1024.02 1024.10 1023.90 1024.22 1024.34 1024.42 1024.46 1024.54 1025.02 1025.42 1025.62 1025.86 1026.06 1026.30 1026.42 1026.58 1026.70 1026.86 1026.98 1027.02 1027.06 1027.02 1027.06 1027.06 1027.02 1027.02 1027.10 1027.18 1027.22 1027.26 1027.30 1027.30 1027.34 1027.38 1027.38 1027.38 1027.34 1027.34 1027.30 1027.22 1027.14 1026.98
1018.94 1019.10 1019.30 1019.50 1019.62 1019.70 1019.98 1020.18 1019.98 1019.82 1020.10 1020.02 1019.58 1019.86 1020.06 1020.34 1020.54 1020.22 1019.98 1020.90 1021.74 1022.50 1022.50 1022.10 1022.06 1022.14 1022.42 1022.50 1022.46 1022.54 1022.86 1023.22 1023.50 1023.74 1023.74 1023.66 1023.74 1023.74 1023.94 1023.82 1023.86 1024.74 1025.18 1025.46 1025.74 1025.98 1026.14 1026.30 1026.46 1026.62 1026.78 1026.90 1026.90 1026.94 1026.98 1026.98 1027.02 1027.06 1027.14 1027.18 1027.22 1027.26 1027.34 1027.38 1027.42 1027.46 1027.42 1027.38 1027.34 1027.34 1027.34 1027.26 1027.14 1026.94
1019.06 1019.10 1019.50 1019.46 1019.34 1019.54 1019.90 1019.94 1019.94 1019.74 1019.90 1019.82 1019.22 1019.90 1019.98 1020.14 1020.50 1020.22 1020.30 1020.14 1020.98 1021.58 1022.22 1022.10 1021.74 1021.82 1022.30 1022.50 1021.82 1021.94 1022.26 1022.78 1023.10 1023.22 1023.26 1023.26 1023.22 1023.22 1023.26 1023.38 1023.14 1024.02 1024.78 1025.26 1025.58 1025.78 1025.94 1026.06 1026.22 1026.42 1026.58 1026.70 1026.74 1026.78 1026.86 1026.86 1026.94 1027.02 1027.06 1027.14 1027.22 1027.26 1027.34 1027.38 1027.46 1027.46 1027.46 1027.42 1027.42 1027.34 1027.30 1027.26 1027.10 1026.94
1018.82 1019.26 1019.34 1019.26 1019.30 1019.50 1019.82 1019.98 1019.86 1019.54 1019.86 1019.50 1019.34 1019.98 1019.98 1020.06 1020.38 1020.30 1020.54 1020.34 1020.58 1021.22 1021.66 1021.98 1021.46 1020.98 1021.66 1021.82 1021.86 1021.54 1022.06 1022.38 1022.70 1022.74 1022.82 1022.78 1022.90 1022.86 1022.78 1022.86 1023.38 1024.10 1024.94 1025.26 1025.54 1025.70 1025.82 1025.90 1026.02 1026.18 1026.34 1026.46 1026.54 1026.62 1026.66 1026.74 1026.82 1026.90 1026.98 1027.06 1027.14 1027.22 1027.30 1027.38 1027.42 1027.46 1027.46 1027.46 1027.42 1027.30 1027.26 1027.18 1027.10 1026.98
1018.58 1019.02 1019.30 1019.54 1019.34 1019.46 1019.90 1020.06 1019.78 1019.54 1019.74 1019.54 1019.50 1019.90 1019.86 1019.90 1020.22 1020.66 1020.74 1020.66 1020.70 1020.66 1020.58 1021.10 1021.86 1021.02 1021.26 1021.74 1021.86 1021.54 1021.54 1021.98 1022.38 1022.58 1022.50 1022.46 1022.42 1022.46 1022.58 1022.98 1023.74 1024.38 1024.86 1025.22 1025.54 1025.82 1025.90 1025.90 1025.94 1026.02 1026.14 1026.30 1026.38 1026.46 1026.54 1026.58 1026.66 1026.74 1026.86 1026.94 1027.06 1027.14 1027.26 1027.34 1027.42 1027.46 1027.46 1027.42 1027.38 1027.34 1027.26 1027.18 1027.10 1026.98
1018.58 1018.66 1018.86 1019.06 1019.54 1019.66 1020.18 1020.38 1019.90 1019.78 1019.82 1019.78 1019.58 1019.70 1019.78 1019.70 1019.94 1020.62 1020.90 1020.86 1021.02 1021.22 1021.14 1020.94 1020.98 1021.30 1021.22 1021.26 1021.78 1021.54 1021.14 1021.42 1021.74 1022.06 1022.34 1022.46 1022.06 1022.22 1022.62 1022.90 1023.22 1023.70 1024.30 1024.66 1024.98 1025.18 1025.30 1025.46 1025.78 1025.94 1026.10 1026.18 1026.26 1026.34 1026.42 1026.50 1026.58 1026.66 1026.74 1026.86 1026.94 1027.06 1027.18 1027.26 1027.30 1027.38 1027.42 1027.42 1027.38 1027.34 1027.22 1027.14 1027.10 1026.98
1018.62 1018.66 1018.90 1019.06 1019.14 1019.26 1019.50 1020.02 1020.06 1019.82 1020.02 1019.90 1019.94 1019.78 1019.82 1019.82 1020.06 1020.70 1020.82 1021.02 1020.98 1021.26 1021.38 1021.42 1021.22 1021.06 1021.30 1021.38 1021.42 1020.94 1021.02 1021.54 1021.70 1021.66 1021.74 1022.18 1022.22 1022.26 1022.06 1022.30 1022.66 1022.86 1023.46 1024.18 1024.66 1024.94 1025.22 1025.46 1025.66 1025.94 1026.14 1026.18 1026.22 1026.22 1026.30 1026.30 1026.38 1026.50 1026.58 1026.66 1026.78 1026.90 1027.02 1027.10 1027.14 1027.22 1027.26 1027.30 1027.34 1027.30 1027.22 1027.10 1027.06 1026.98
1018.98 1018.98 1018.98 1019.02 1019.34 1019.62 1019.82 1019.94 1020.14 1020.06 1020.10 1020.06 1020.26 1020.14 1020.06 1020.22 1020.38 1020.58 1020.78 1020.94 1021.14 1020.98 1021.10 1021.30 1021.18 1021.26 1021.30 1021.34 1021.54 1021.90 1021.78 1021.70 1021.54 1021.38 1021.62 1021.98 1021.90 1021.66 1021.82 1021.90 1022.10 1022.30 1022.66 1023.30 1023.66 1024.14 1024.50 1024.78 1025.10 1025.42 1025.62 1025.78 1026.06 1026.06 1025.94 1025.94 1026.10 1026.18 1026.30 1026.42 1026.58 1026.70 1026.82 1026.90 1026.94 1026.98 1027.02 1027.10 1027.18 1027.22 1027.14 1027.06 1026.94 1026.90
1019.14 1019.06 1019.06 1019.54 1019.74 1019.86 1019.98 1020.10 1020.22 1020.26 1020.26 1020.50 1020.74 1020.70 1020.50 1020.42 1020.62 1020.78 1020.90 1020.98 1020.94 1021.10 1021.26 1021.18 1021.18 1021.42 1021.38 1021.22 1021.26 1021.42 1021.54 1021.42 1021.30 1021.62 1021.74 1022.06 1021.74 1021.86 1021.94 1021.86 1021.70 1021.66 1021.94 1022.22 1022.78 1023.14 1023.66 1024.06 1024.38 1024.62 1024.62 1024.74 1025.34 1025.34 1025.50 1025.30 1025.58 1025.86 1026.02 1026.18 1026.34 1026.46 1026.58 1026.70 1026.74 1026.78 1026.78 1026.86 1026.94 1026.98 1026.94 1026.86 1026.78 1026.74
1019.34 1019.34 1019.22 1019.50 1019.90 1020.02 1020.18 1020.34 1020.50 1020.50 1020.50 1020.62 1020.78 1020.98 1021.14 1021.22 1021.18 1021.02 1021.10 1021.14 1020.98 1021.06 1021.06 1020.94 1021.02 1021.06 1021.26 1021.10 1020.98 1021.14 1021.26 1021.46 1021.66 1021.78 1021.86 1022.02 1022.06 1022.14 1022.42 1022.66 1021.94 1021.30 1021.70 1022.30 1022.66 1022.62 1022.50 1023.18 1023.42 1023.58 1023.58 1023.74 1024.50 1024.46 1024.50 1024.74 1025.18 1025.54 1025.78 1025.94 1026.06 1026.22 1026.42 1026.54 1026.58 1026.58 1026.58 1026.62 1026.70 1026.74 1026.74 1026.66 1026.62 1026.58
1019.18 1019.26 1019.34 1019.30 1019.70 1019.74 1019.86 1019.94 1020.26 1020.46 1020.58 1020.66 1020.78 1020.94 1020.98 1020.94 1021.18 1021.62 1021.66 1021.54 1021.34 1021.30 1021.30 1021.26 1021.10 1021.02 1021.10 1020.98 1020.94 1021.02 1021.14 1021.30 1021.42 1021.54 1021.70 1021.82 1022.06 1022.18 1022.30 1022.30 1022.42 1021.26 1021.30 1022.18 1022.50 1022.58 1022.18 1022.42 1022.78 1022.78 1022.58 1022.78 1023.46 1023.42 1023.62 1024.22 1024.78 1025.22 1025.54 1025.70 1025.86 1026.02 1026.22 1026.38 1026.46 1026.46 1026.50 1026.50 1026.50 1026.50 1026.50 1026.46 1026.42 1026.42
1018.74 1018.90 1019.22 1019.42 1019.46 1019.42 1019.90 1019.90 1019.82 1020.02 1020.42 1020.74 1020.98 1020.98 1021.06 1021.14 1021.10 1021.06 1021.42 1021.82 1021.86 1021.74 1021.66 1021.58 1021.34 1021.06 1020.98 1021.14 1020.98 1020.86 1021.06 1020.98 1021.38 1021.46 1021.62 1021.70 1021.82 1021.86 1022.02 1021.94 1021.74 1021.38 1021.34 1021.82 1022.26 1022.34 1021.94 1021.82 1022.30 1022.58 1022.34 1022.22 1022.82 1023.42 1023.62 1023.94 1024.42 1024.90 1025.22 1025.46 1025.62 1025.78 1026.02 1026.18 1026.30 1026.34 1026.38 1026.34 1026.34 1026.34 1026.30 1026.26 1026.22 1026.18
1019.18 1019.14 1019.22 1019.30 1019.54 1019.58 1019.86 1019.78 1019.82 1019.82 1019.82 1020.30 1020.62 1020.74 1020.74 1020.70 1020.78 1021.02 1021.18 1021.22 1021.54 1021.94 1021.90 1021.74 1021.82 1021.34 1021.26 1021.26 1021.06 1020.86 1020.70 1021.14 1021.46 1021.50 1021.54 1021.54 1021.66 1021.66 1021.54 1021.22 1021.18 1020.98 1021.18 1021.70 1021.86 1022.10 1021.66 1021.34 1021.74 1022.30 1022.06 1021.94 1022.62 1023.06 1023.50 1023.86 1024.26 1024.66 1024.94 1025.18 1025.34 1025.62 1025.86 1026.06 1026.18 1026.22 1026.22 1026.22 1026.18 1026.18 1026.14 1026.14 1026.10 1026.02
1019.22 1019.38 1019.58 1019.62 1019.62 1019.62 1019.98 1020.82 1020.62 1020.06 1020.10 1020.10 1020.18 1020.34 1020.46 1020.46 1020.54 1020.54 1020.66 1020.90 1021.02 1021.22 1021.26 1021.26 1021.26 1021.14 1020.90 1021.06 1020.98 1020.74 1020.94 1020.98 1020.86 1020.98 1021.10 1021.06 1021.06 1020.98 1020.78 1021.42 1021.18 1021.18 1020.98 1021.14 1021.54 1021.94 1021.30 1020.98 1021.26 1021.50 1021.74 1021.82 1021.86 1022.42 1023.26 1023.58 1024.02 1024.38 1024.66 1024.82 1025.14 1025.46 1025.70 1025.90 1026.02 1026.06 1026.06 1026.06 1026.06 1026.06 1026.02 1025.98 1025.90 1025.86
1019.26 1019.34 1019.46 1019.54 1019.58 1019.86 1020.74 1021.30 1021.06 1020.90 1020.62 1020.58 1020.50 1020.54 1020.46 1020.42 1020.38 1020.38 1020.30 1020.38 1020.58 1020.78 1020.90 1020.86 1020.86 1020.78 1020.98 1021.14 1021.06 1020.98 1020.94 1020.78 1020.70 1020.74 1020.82 1020.78 1020.98 1021.14 1021.22 1021.18 1020.94 1021.06 1020.62 1020.78 1021.26 1021.46 1021.30 1020.90 1021.14 1021.06 1021.22 1021.54 1021.66 1022.10 1023.06 1023.42 1023.62 1024.02 1024.30 1024.66 1024.98 1025.30 1025.50 1025.66 1025.78 1025.86 1025.90 1025.90 1025.90 1025.90 1025.82 1025.74 1025.70 1025.62
1019.34 1019.62 1019.78 1019.86 1019.74 1020.38 1021.46 1022.06 1021.70 1021.58 1021.22 1020.82 1020.78 1020.66 1020.58 1020.38 1020.30 1020.30 1020.06 1020.14 1020.46 1020.78 1021.06 1021.30 1021.42 1021.46 1021.34 1021.22 1021.14 1021.10 1021.02 1020.94 1020.78 1020.90 1021.06 1021.26 1020.94 1021.26 1021.26 1020.90 1020.94 1020.66 1020.42 1020.46 1020.74 1021.06 1021.14 1020.94 1021.10 1021.26 1021.10 1021.18 1021.10 1021.26 1022.38 1023.14 1023.66 1023.90 1024.26 1024.62 1024.86 1025.06 1025.26 1025.42 1025.54 1025.58 1025.62 1025.70 1025.66 1025.62 1025.58 1025.50 1025.50 1025.46
1019.86 1020.58 1020.70 1020.58 1020.58 1021.10 1022.14 1022.34 1022.10 1021.98 1021.66 1021.10 1020.90 1020.74 1020.70 1020.70 1020.66 1020.22 1020.18 1020.74 1021.26 1021.14 1020.90 1020.86 1021.02 1021.14 1021.26 1021.30 1021.38 1021.34 1021.18 1021.06 1020.94 1020.90 1021.10 1020.94 1021.38 1021.26 1021.54 1022.22 1020.94 1020.30 1020.54 1020.70 1020.62 1021.10 1021.06 1020.90 1020.98 1021.14 1020.94 1021.10 1021.10 1021.18 1021.70 1022.90 1023.74 1024.22 1024.42 1024.50 1024.66 1024.82 1024.98 1025.14 1025.26 1025.26 1025.34 1025.38 1025.38 1025.34 1025.34 1025.38 1025.46 1025.22
1019.90 1021.02 1021.78 1021.98 1022.14 1022.54 1022.98 1022.74 1022.74 1022.74 1022.54 1021.78 1021.30 1021.14 1020.98 1020.74 1020.66 1020.50 1020.78 1020.90 1021.18 1021.34 1021.18 1020.98 1020.86 1020.78 1020.74 1020.78 1020.86 1020.78 1020.86 1020.98 1021.06 1020.78 1020.42 1020.34 1020.46 1020.70 1020.86 1021.06 1021.34 1020.02 1019.98 1019.90 1020.30 1020.90 1020.62 1020.82 1020.82 1020.58 1020.90 1021.46 1020.98 1020.94 1021.50 1022.70 1023.10 1023.70 1023.90 1024.18 1024.46 1024.58 1024.74 1024.94 1024.98 1024.98 1025.06 1025.14 1025.14 1025.26 1025.30 1025.34 1025.38 1025.10
1019.66 1020.70 1021.94 1022.70 1023.10 1023.02 1023.06 1023.06 1023.10 1023.22 1023.38 1022.94 1022.34 1021.94 1021.46 1021.10 1020.86 1021.58 1021.62 1021.30 1021.26 1021.22 1021.30 1021.22 1021.02 1020.82 1020.62 1020.46 1020.46 1020.42 1020.42 1020.50 1020.62 1020.50 1020.26 1020.18 1020.10 1020.02 1019.90 1019.90 1020.86 1021.02 1019.34 1019.46 1019.62 1020.10 1020.06 1020.18 1020.38 1020.06 1020.50 1021.14 1021.38 1020.82 1020.86 1022.34 1022.58 1022.94 1023.14 1023.30 1023.62 1024.10 1024.62 1024.74 1024.70 1024.70 1024.78 1024.82 1024.98 1025.18 1025.26 1025.26 1025.26 1025.02
1020.14 1019.90 1021.22 1022.38 1023.34 1023.30 1023.38 1023.38 1023.38 1023.50 1023.66 1023.78 1023.26 1022.50 1021.90 1021.82 1022.50 1022.46 1021.66 1021.38 1021.42 1021.18 1020.98 1020.82 1020.70 1020.54 1020.38 1020.26 1020.14 1020.06 1020.06 1020.14 1020.18 1020.26 1020.14 1019.98 1019.90 1019.90 1019.94 1020.02 1019.82 1019.42 1019.06 1019.26 1019.42 1019.54 1019.86 1019.74 1019.94 1019.90 1020.10 1020.26 1020.38 1020.86 1021.34 1021.30 1021.54 1021.98 1022.34 1022.62 1022.82 1023.62 1024.18 1024.22 1024.14 1024.06 1024.18 1024.50 1024.86 1025.06 1025.14 1025.14 1025.10 1025.06
1020.86 1020.86 1021.14 1022.10 1023.06 1023.18 1023.10 1023.14 1023.26 1023.30 1023.38 1023.58 1023.42 1022.58 1022.54 1022.62 1022.66 1022.66 1022.46 1021.90 1021.26 1020.82 1020.54 1020.38 1020.30 1020.30 1020.14 1019.94 1019.90 1019.94 1020.06 1020.14 1019.86 1019.66 1019.62 1019.70 1019.74 1019.70 1019.90 1020.18 1020.30 1019.94 1019.34 1019.14 1019.34 1019.34 1019.62 1019.54 1019.42 1019.62 1019.66 1019.86 1019.98 1020.66 1021.10 1021.18 1021.30 1021.62 1022.02 1022.42 1022.78 1023.06 1023.42 1023.42 1023.30 1023.14 1023.26 1024.02 1024.46 1024.82 1024.86 1024.82 1024.82 1024.86
1021.98 1021.90 1021.78 1022.34 1022.86 1022.82 1022.82 1022.98 1023.06 1023.06 1023.22 1023.30 1022.86 1022.74 1022.74 1022.74 1022.82 1022.70 1022.06 1021.70 1021.50 1021.02 1020.62 1020.34 1020.06 1019.82 1019.50 1019.34 1019.38 1019.46 1019.62 1020.02 1019.98 1019.42 1018.98 1019.22 1019.50 1019.58 1019.66 1019.74 1019.82 1019.78 1019.62 1019.78 1019.82 1019.86 1019.74 1019.70 1019.26 1019.34 1019.54 1019.82 1020.58 1020.86 1021.14 1021.42 1021.30 1021.30 1021.58 1022.26 1022.62 1022.66 1022.90 1022.86 1022.90 1022.74 1022.94 1023.54 1023.86 1024.34 1024.50 1024.50 1024.50 1024.62
1022.38 1022.30 1022.82 1022.98 1022.94 1022.82 1022.78 1022.90 1022.90 1023.02 1023.10 1023.06 1022.86 1022.74 1022.58 1022.58 1022.78 1022.42 1021.74 1021.46 1021.14 1020.94 1020.66 1020.34 1020.02 1019.78 1019.54 1019.34 1019.10 1018.90 1018.82 1018.82 1018.74 1019.46 1019.38 1019.18 1019.26 1019.38 1019.66 1019.90 1020.10 1020.06 1019.98 1020.14 1020.30 1020.54 1020.22 1020.22 1019.86 1019.62 1019.58 1019.82 1020.34 1020.58 1020.74 1020.62 1020.82 1020.90 1021.18 1021.38 1021.62 1021.94 1022.38 1022.62 1022.50 1022.66 1023.26 1023.58 1023.74 1024.18 1024.42 1024.22 1024.18 1024.54
1022.46 1022.86 1022.98 1023.02 1023.02 1022.94 1022.90 1022.82 1022.90 1022.78 1022.58 1022.34 1022.22 1022.22 1022.14 1022.38 1022.26 1021.86 1021.62 1021.38 1021.18 1020.98 1020.70 1020.34 1019.98 1019.62 1019.42 1019.18 1018.94 1018.54 1018.26 1018.14 1018.30 1019.06 1019.06 1019.02 1019.14 1019.38 1019.78 1020.06 1020.26 1020.46 1020.54 1020.54 1020.46 1020.50 1020.66 1021.10 1020.98 1020.82 1020.58 1020.22 1020.18 1020.38 1020.42 1020.58 1020.54 1020.74 1021.06 1021.46 1021.74 1021.90 1022.02 1021.90 1022.14 1022.78 1023.30 1023.54 1023.70 1023.82 1023.94 1024.02 1024.06 1023.94
1023.18 1023.06 1023.06 1023.02 1022.94 1022.86 1022.70 1022.66 1022.46 1022.14 1021.86 1021.86 1021.86 1021.86 1022.02 1022.22 1021.74 1021.30 1020.78 1020.46 1020.30 1020.06 1019.78 1019.54 1019.34 1019.02 1018.70 1018.46 1018.14 1018.02 1017.90 1017.98 1017.94 1018.50 1018.86 1019.02 1019.18 1019.62 1020.22 1020.58 1020.86 1020.94 1021.14 1021.30 1021.22 1021.22 1021.14 1021.50 1021.18 1021.02 1020.94 1020.58 1020.38 1020.46 1020.50 1020.74 1021.02 1021.18 1021.38 1021.66 1021.74 1021.86 1021.98 1022.22 1022.30 1022.90 1023.50 1023.74 1023.86 1023.98 1023.98 1023.94 1023.94 1023.98
1022.86 1022.86 1022.90 1022.74 1022.54 1022.42 1022.30 1022.30 1022.22 1022.18 1021.94 1021.74 1021.38 1021.22 1021.22 1021.02 1020.70 1020.46 1020.26 1019.90 1019.70 1019.62 1019.50 1019.34 1019.10 1018.86 1018.66 1018.38 1018.30 1018.14 1018.34 1018.42 1018.42 1018.54 1018.94 1019.14 1019.38 1019.62 1019.90 1020.26 1020.70 1021.06 1021.30 1021.50 1021.70 1021.58 1021.46 1021.54 1021.66 1021.66 1021.74 1021.22 1020.94 1021.10 1020.90 1021.10 1021.34 1021.46 1021.66 1021.90 1021.98 1022.06 1021.58 1021.98 1022.50 1022.94 1023.38 1023.74 1023.98 1024.06 1024.02 1023.86 1023.90 1024.02
1023.06 1022.78 1022.42 1022.14 1021.90 1021.70 1021.66 1021.50 1021.34 1021.26 1021.14 1021.02 1020.82 1020.22 1019.82 1019.98 1020.10 1019.98 1019.82 1020.10 1020.10 1019.98 1019.90 1019.82 1019.82 1019.82 1019.58 1019.18 1018.86 1018.54 1018.42 1018.38 1018.30 1018.42 1018.82 1019.10 1019.22 1019.46 1019.90 1020.50 1021.06 1021.26 1021.54 1021.58 1021.70 1021.86 1021.90 1021.94 1022.22 1022.18 1022.02 1021.62 1021.46 1021.26 1021.30 1021.38 1021.66 1021.86 1022.10 1022.14 1022.10 1022.06 1022.38 1022.74 1023.06 1023.22 1023.42 1023.82 1024.14 1024.14 1023.90 1023.62 1023.58 1023.74
1023.26 1022.66 1022.06 1021.50 1021.18 1020.90 1020.78 1020.70 1020.50 1020.34 1020.22 1020.14 1020.10 1020.14 1020.30 1020.18 1020.10 1020.06 1019.90 1019.62 1019.54 1019.78 1020.22 1020.38 1020.38 1020.22 1019.98 1019.70 1019.42 1019.10 1018.78 1018.62 1018.50 1018.66 1018.94 1019.30 1019.58 1019.94 1019.94 1020.14 1020.38 1020.82 1021.14 1021.38 1021.74 1022.02 1022.10 1022.18 1022.18 1022.38 1022.54 1022.42 1022.26 1022.30 1022.26 1022.38 1022.26 1022.10 1022.10 1021.86 1022.18 1022.54 1022.74 1023.06 1023.26 1023.46 1023.66 1023.98 1024.18 1024.02 1023.70 1023.38 1023.34 1023.58
1023.82 1022.86 1021.90 1021.30 1020.94 1020.98 1020.90 1020.94 1021.06 1021.06 1020.98 1020.90 1020.78 1020.70 1020.70 1020.74 1020.50 1020.30 1020.10 1019.82 1019.70 1020.02 1020.42 1020.86 1021.14 1021.14 1020.98 1020.74 1020.26 1019.74 1019.38 1019.06 1018.90 1018.94 1019.14 1019.26 1019.46 1019.78 1019.78 1020.10 1020.46 1020.86 1021.18 1021.66 1022.02 1022.38 1022.54 1022.50 1022.46 1022.74 1022.98 1023.10 1023.02 1022.94 1022.94 1022.94 1023.02 1022.86 1022.50 1022.98 1022.70 1022.82 1023.02 1023.18 1023.30 1023.42 1023.74 1024.06 1024.14 1024.14 1023.74 1023.38 1023.34 1023.74
1022.90 1021.82 1021.34 1021.38 1021.38 1021.30 1021.22 1021.26 1021.26 1021.30 1021.22 1021.10 1021.06 1020.98 1020.82 1020.78 1020.74 1020.62 1020.34 1020.10 1020.10 1020.14 1020.34 1020.70 1021.06 1021.26 1021.30 1021.10 1020.74 1020.30 1019.98 1019.90 1019.74 1019.90 1019.86 1019.90 1020.14 1020.14 1020.38 1020.70 1020.74 1020.90 1021.22 1021.66 1021.86 1021.98 1022.22 1022.50 1022.70 1022.78 1022.78 1022.86 1022.78 1022.70 1022.70 1022.66 1022.78 1022.86 1022.82 1023.06 1023.14 1023.22 1023.26 1023.22 1023.30 1023.42 1023.66 1023.90 1023.98 1024.02 1023.86 1023.50 1023.50 1023.98
1021.86 1021.66 1021.82 1021.62 1021.54 1021.42 1021.42 1021.38 1021.38 1021.38 1021.54 1021.74 1021.66 1021.50 1021.34 1021.10 1020.90 1020.74 1020.50 1020.42 1020.54 1020.62 1020.62 1020.62 1020.58 1020.66 1020.66 1020.58 1020.70 1020.82 1020.62 1020.26 1020.06 1020.14 1020.26 1020.38 1020.50 1020.54 1020.50 1020.54 1020.82 1020.98 1021.14 1021.30 1021.30 1021.46 1021.82 1022.02 1022.02 1021.98 1022.18 1022.26 1022.26 1022.38 1023.06 1022.78 1023.02 1023.02 1022.86 1023.22 1023.26 1023.22 1023.22 1023.22 1023.26 1023.46 1023.62 1023.74 1023.70 1023.78 1023.82 1023.66 1023.42 1023.42
1021.58 1021.46 1021.54 1021.70 1021.54 1021.58 1021.74 1021.90 1022.06 1022.14 1022.18 1022.14 1022.18 1022.22 1022.14 1021.94 1021.50 1021.02 1020.66 1020.66 1020.62 1020.70 1020.82 1020.90 1020.90 1020.78 1020.78 1020.70 1020.70 1020.94 1021.06 1020.94 1020.90 1020.86 1020.86 1020.74 1020.90 1021.02 1021.14 1021.06 1021.06 1020.98 1021.02 1021.22 1021.26 1021.50 1021.62 1021.90 1021.98 1022.10 1021.86 1021.66 1021.74 1021.34 1022.30 1023.18 1023.14 1023.30 1023.34 1023.06 1023.26 1023.22 1023.22 1023.18 1023.34 1023.54 1023.50 1023.46 1023.42 1023.34 1023.38 1023.50 1023.66 1023.74
1021.54 1021.54 1021.82 1021.66 1021.54 1021.62 1021.98 1022.26 1022.38 1022.58 1022.58 1022.58 1022.46 1022.38 1022.30 1022.14 1021.90 1021.54 1021.18 1020.98 1020.94 1020.98 1021.06 1021.26 1021.30 1021.18 1021.10 1021.10 1021.14 1021.06 1021.26 1021.18 1021.10 1021.18 1021.14 1021.26 1021.42 1021.38 1021.46 1021.58 1021.58 1021.46 1021.46 1021.62 1021.70 1021.82 1022.10 1022.14 1022.22 1022.10 1022.06 1021.86 1021.90 1021.14 1022.62 1023.10 1023.34 1023.34 1023.50 1023.42 1023.38 1023.38 1023.22 1023.26 1023.30 1023.42 1023.38 1023.30 1023.30 1023.14 1023.18 1023.30 1023.42 1023.82
1022.06 1022.50 1022.34 1022.18 1022.14 1022.14 1022.30 1022.42 1022.58 1022.66 1022.58 1022.54 1022.54 1022.38 1022.26 1022.14 1022.02 1021.98 1021.82 1021.70 1021.58 1021.62 1021.66 1021.82 1021.78 1021.70 1021.70 1021.58 1021.58 1021.50 1021.54 1021.46 1021.34 1021.26 1021.38 1021.54 1021.66 1021.74 1021.78 1021.74 1021.58 1021.46 1021.74 1022.06 1022.02 1022.10 1021.98 1021.86 1021.62 1021.38 1021.62 1022.02 1021.94 1022.82 1022.58 1022.58 1023.26 1023.22 1023.46 1023.58 1023.34 1023.42 1023.38 1023.18 1023.18 1023.10 1023.22 1023.26 1023.02 1022.98 1023.02 1023.46 1023.78 1023.94
1022.98 1023.10 1023.06 1023.10 1023.22 1023.18 1023.18 1023.10 1023.06 1022.98 1022.98 1022.82 1022.58 1022.42 1022.38 1022.30 1022.14 1022.18 1022.30 1022.38 1022.30 1022.26 1022.18 1022.14 1022.18 1022.22 1022.06 1021.98 1021.90 1021.78 1021.74 1021.74 1021.70 1021.66 1021.58 1021.58 1021.86 1022.06 1022.10 1021.90 1021.82 1021.86 1021.98 1022.02 1021.98 1021.74 1021.62 1021.58 1021.82 1022.06 1021.98 1022.10 1022.98 1023.06 1022.82 1022.86 1022.90 1023.18 1023.34 1023.50 1023.70 1023.58 1023.54 1023.58 1023.50 1023.50 1023.34 1023.10 1023.06 1023.30 1023.10 1023.26 1023.66 1023.90
1023.62 1023.54 1023.50 1023.58 1023.58 1023.54 1023.54 1023.54 1023.54 1023.54 1023.46 1023.30 1023.10 1023.02 1022.94 1022.74 1022.58 1022.58 1022.50 1022.70 1022.66 1022.62 1022.46 1022.58 1022.70 1022.58 1022.54 1022.62 1022.54 1022.46 1022.70 1022.82 1022.86 1022.86 1022.70 1022.62 1022.66 1022.62 1022.38 1021.86 1021.70 1021.74 1021.62 1021.98 1021.90 1021.62 1021.70 1022.66 1022.90 1022.82 1022.74 1022.78 1022.98 1023.02 1023.18 1023.06 1022.82 1022.62 1022.90 1023.22 1023.78 1023.90 1023.70 1023.58 1023.54 1023.62 1023.90 1023.78 1023.62 1023.50 1023.26 1022.98 1022.82 1023.30
1024.26 1024.18 1024.06 1024.06 1024.10 1024.06 1024.10 1024.10 1024.02 1023.90 1023.78 1023.62 1023.42 1023.22 1023.10 1023.02 1022.74 1022.82 1022.54 1022.82 1022.86 1022.86 1022.94 1023.10 1023.18 1023.26 1023.34 1023.30 1023.26 1023.26 1023.38 1023.58 1023.70 1023.82 1023.74 1023.50 1023.22 1022.90 1022.74 1022.50 1022.30 1022.10 1021.86 1022.22 1022.34 1022.22 1022.30 1022.70 1022.78 1022.82 1022.82 1022.94 1023.02 1023.02 1022.90 1022.66 1022.54 1022.62 1022.66 1023.10 1023.58 1023.86 1023.78 1023.70 1023.78 1023.90 1023.94 1023.98 1023.90 1023.78 1023.54 1023.10 1022.94 1022.98
1024.70 1024.62 1024.54 1024.58 1024.62 1024.54 1024.46 1024.30 1023.98 1023.82 1023.74 1023.54 1023.34 1023.18 1023.10 1022.90 1023.06 1023.18 1023.14 1023.34 1023.38 1023.46 1023.58 1023.66 1023.74 1023.78 1023.86 1023.86 1023.86 1023.86 1023.86 1023.94 1023.98 1024.06 1024.06 1023.98 1023.82 1023.66 1023.46 1023.14 1022.70 1022.46 1022.46 1022.46 1022.50 1022.58 1022.50 1022.54 1022.74 1022.90 1022.90 1022.90 1022.98 1023.06 1023.10 1022.86 1022.58 1022.46 1022.66 1022.94 1023.50 1023.62 1023.66 1023.70 1023.82 1023.98 1024.06 1024.14 1024.14 1024.14 1024.14 1024.18 1024.18 1023.94
1025.06 1024.90 1024.74 1024.66 1024.70 1024.78 1024.78 1024.46 1024.10 1023.74 1023.70 1023.62 1023.50 1023.34 1023.38 1023.50 1023.74 1023.90 1023.86 1023.90 1023.90 1023.94 1023.94 1024.02 1024.14 1024.18 1024.14 1024.14 1024.14 1024.18 1024.26 1024.34 1024.30 1024.22 1024.10 1023.90 1023.82 1023.78 1023.58 1023.38 1023.18 1023.06 1022.94 1022.86 1022.90 1022.90 1022.82 1022.78 1022.86 1022.90 1022.90 1022.78 1022.66 1022.82 1022.78 1022.78 1022.62 1022.42 1022.38 1022.42 1023.06 1023.26 1023.38 1023.50 1023.70 1023.86 1023.82 1023.78 1023.86 1024.06 1024.30 1024.50 1024.54 1024.58
1025.30 1025.02 1024.86 1024.82 1024.90 1025.06 1025.14 1024.94 1024.62 1024.14 1023.98 1023.94 1023.94 1024.02 1023.94 1023.98 1024.06 1024.10 1024.22 1024.26 1024.30 1024.34 1024.38 1024.46 1024.54 1024.54 1024.54 1024.62 1024.74 1024.78 1024.70 1024.50 1024.38 1024.30 1024.18 1024.02 1023.90 1023.78 1023.62 1023.54 1023.42 1023.34 1023.18 1023.10 1023.06 1022.90 1022.78 1022.82 1022.74 1022.70 1022.66 1022.42 1022.46 1022.54 1022.70 1022.66 1022.58 1022.62 1022.46 1022.46 1022.98 1023.02 1022.90 1023.18 1023.26 1023.26 1023.22 1023.18 1023.34 1023.66 1023.94 1024.26 1024.38 1024.46
Wind_Speed
9 8 8 6 3 5 6 7 8 6 5 4 5 7 7 6 6 6 7 5 8 8 8 7 8 9 8 8 9 10 9 11 10 7 8 7 7 6 6 6 5 5 5 4 4 3 2 2 2 1 1 1 1 2 2 2 2 3 3 4 4 5 6 7 5 6 7 7 8 8 8 8 8 8
6 6 8 6 5 3 6 4 5 6 4 3 7 8 5 5 7 5 7 7 6 7 7 7 8 9 9 8 8 8 9 14 14 9 9 8 7 11 8 8 7 6 5 5 4 4 3 2 1 1 1 0 1 1 1 1 0 1 0 2 3 3 4 5 6 5 6 7 7 7 8 8 9 9
5 6 6 6 4 4 6 5 5 6 7 7 7 7 5 5 3 7 6 7 6 6 6 7 9 9 10 9 8 8 10 13 13 8 8 9 14 14 8 10 9 8 8 7 6 5 5 3 3 3 2 3 2 2 2 1 1 3 1 1 1 1 3 4 6 7 7 7 8 8 8 9 10 10
8 9 9 7 6 6 7 6 5 4 6 6 7 5 6 6 1 6 6 7 8 5 5 6 8 10 9 9 9 8 9 10 15 7 8 9 16 11 8 12 12 11 11 9 7 8 6 4 4 3 4 3 3 3 1 2 2 2 2 2 1 1 1 3 5 6 7 8 8 9 9 10 11 11
6 7 7 8 8 8 6 5 6 7 7 6 7 7 4 5 4 6 5 8 8 5 4 5 7 9 9 9 9 9 8 10 9 10 7 12 10 10 8 10 15 15 14 13 12 10 7 6 6 5 5 4 4 4 3 3 3 4 4 3 2 0 1 2 4 5 7 8 8 9 10 10 11 11
5 6 8 8 6 7 7 7 8 8 7 8 9 6 6 7 7 7 9 10 8 8 5 5 6 9 9 8 10 9 9 10 10 11 9 10 10 9 9 9 10 19 15 15 14 12 11 9 8 7 6 6 6 5 4 4 4 4 4 4 3 3 0 2 3 5 6 7 7 8 8 9 10 11
5 6 7 8 8 7 7 7 8 7 8 8 8 7 6 8 8 9 6 11 10 9 7 6 7 8 8 7 10 11 10 10 10 11 10 9 9 8 9 9 8 18 17 17 14 13 12 10 9 9 8 8 7 6 5 5 5 5 4 4 4 3 2 2 3 4 5 5 6 7 7 8 10 10
7 6 6 7 8 7 7 8 8 8 8 8 7 7 6 7 8 6 6 8 8 9 9 7 8 8 8 8 8 9 10 10 9 9 9 10 9 9 8 9 7 15 19 16 13 13 12 11 11 10 10 9 8 8 7 7 6 6 5 5 4 3 4 2 2 2 3 4 4 5 6 7 9 11
7 6 5 5 8 7 9 7 9 8 9 9 6 7 7 6 7 3 3 2 6 9 9 8 8 9 10 8 7 8 9 10 9 9 9 9 9 9 9 2 6 14 14 12 11 11 11 12 11 11 11 10 10 9 9 8 7 7 7 6 5 4 4 3 2 1 0 1 3 4 5 7 8 10
6 6 8 7 3 7 5 6 8 7 9 7 7 9 8 7 7 6 5 5 4 5 6 9 8 6 7 8 7 8 8 8 9 8 8 8 7 6 7 5 6 7 6 6 5 5 7 10 10 11 11 11 11 11 10 9 9 8 8 7 7 6 5 4 3 3 1 1 1 2 4 5 7 8
5 6 5 7 9 8 7 7 8 7 7 6 6 7 7 9 10 8 7 7 6 6 5 5 8 8 6 5 7 8 8 8 7 7 7 7 7 7 7 6 8 8 7 8 10 8 9 10 9 10 10 11 11 11 11 10 10 9 8 8 8 7 6 4 4 3 2 2 2 2 2 4 5 7
4 4 5 4 5 7 8 8 8 7 7 6 6 5 5 7 5 8 7 6 7 8 7 7 5 5 7 7 7 8 8 8 8 8 8 8 7 7 6 8 7 7 8 7 7 6 5 9 8 10 9 10 11 11 10 10 10 10 10 9 8 7 6 6 5 4 3 2 2 2 3 3 3 5
5 4 4 3 4 9 8 11 7 6 6 3 7 6 5 6 5 5 6 7 7 7 7 8 7 7 7 7 7 7 7 8 8 6 6 6 7 7 5 7 10 8 8 8 7 8 9 9 8 8 8 8 10 11 12 10 12 13 11 10 9 7 7 6 5 4 3 3 3 3 4 3 4 4
5 5 4 6 8 9 9 9 9 8 8 9 6 4 4 6 7 6 6 7 7 7 8 8 8 8 8 8 8 7 8 7 6 6 6 8 8 8 9 6 6 8 9 9 8 8 10 9 9 9 10 10 12 9 10 9 10 11 12 11 9 8 8 6 5 5 4 3 4 4 4 4 5 5
5 5 5 5 6 5 3 2 4 4 5 7 8 7 5 4 3 5 6 8 8 7 8 7 8 8 8 8 7 7 8 7 8 7 7 8 8 9 8 9 7 7 7 6 7 9 8 11 9 10 10 10 12 11 11 13 16 15 13 11 10 9 7 6 6 4 4 3 3 4 4 4 4 5
5 6 6 5 4 5 4 3 6 4 2 3 4 5 8 9 5 4 1 5 6 7 8 8 8 8 8 8 6 6 6 7 7 8 8 9 9 9 9 9 9 5 8 8 9 9 6 10 9 8 9 8 12 12 12 18 18 16 14 12 11 9 7 6 5 5 4 4 3 4 4 5 6 6
6 6 5 5 4 4 6 3 4 5 6 5 2 1 4 4 6 11 5 5 4 5 7 7 9 9 7 7 7 5 6 5 6 6 8 8 8 9 10 10 9 7 8 8 9 9 8 8 9 9 8 7 6 7 14 19 18 16 13 12 11 9 7 5 5 5 5 4 3 3 5 6 6 7
2 2 2 4 5 3 4 4 5 4 4 5 5 4 4 5 6 7 8 10 7 4 4 6 7 7 7 8 7 6 6 7 8 8 8 8 10 9 10 8 9 3 9 8 7 8 8 7 6 9 8 8 8 8 13 18 17 16 15 13 10 9 7 7 6 6 5 5 4 4 5 7 7 8
1 2 3 3 2 4 2 8 8 2 3 4 4 5 6 6 7 7 7 6 5 4 5 6 8 8 9 6 7 7 7 8 7 7 8 8 8 8 6 1 5 5 8 7 7 10 8 7 9 9 8 7 8 9 15 18 18 17 15 13 10 9 9 7 7 6 6 5 4 5 6 7 8 8
4 4 3 3 5 3 8 9 12 9 6 4 6 6 7 7 8 8 7 4 1 4 6 7 7 6 1 2 3 4 4 6 5 7 8 8 9 9 10 10 7 9 8 8 9 8 8 7 8 7 6 6 8 7 8 15 17 16 15 13 11 10 9 8 7 7 7 7 5 6 7 7 7 8
1 3 4 4 2 8 7 9 12 13 10 4 6 8 9 8 8 8 6 8 8 2 7 12 14 12 13 13 11 10 9 5 6 7 9 9 9 9 13 11 10 10 6 7 9 8 8 6 7 9 7 8 10 7 9 8 11 14 13 12 12 10 10 9 8 9 9 8 8 8 8 8 7 8
4 8 13 10 7 8 7 10 12 13 9 5 6 8 8 9 10 9 5 5 5 3 5 7 8 9 11 11 12 12 11 11 6 9 12 8 9 9 4 10 12 8 7 8 8 7 9 6 7 9 6 6 5 6 4 9 8 9 10 13 13 12 11 10 10 11 11 10 10 9 8 7 6 6
5 7 10 14 12 9 7 11 11 12 10 4 6 7 8 8 9 6 5 4 3 6 8 7 6 7 9 10 10 10 15 13 8 9 12 11 12 8 8 10 11 13 8 6 12 9 7 6 7 8 6 6 6 6 6 9 9 8 8 8 9 12 11 10 13 13 13 12 10 8 6 5 4 6
1 9 8 10 12 11 11 10 10 10 9 6 6 7 6 7 6 8 8 7 6 5 7 8 9 9 9 9 7 9 10 10 10 10 11 10 10 11 11 9 6 12 9 3 13 8 6 7 7 8 7 5 4 3 5 10 9 9 8 8 9 11 11 12 12 15 13 11 10 7 5 5 6 5
4 1 9 6 7 7 7 7 7 5 5 5 5 5 6 6 7 9 8 9 8 8 7 8 7 9 10 9 8 8 8 8 8 8 10 10 9 10 9 9 13 11 7 3 14 7 6 7 7 7 7 9 7 3 4 5 5 6 6 5 2 7 8 9 8 8 13 13 9 7 7 9 10 8
4 6 5 5 6 8 9 8 7 6 5 5 4 5 7 10 10 7 6 7 8 8 9 9 9 9 10 10 6 6 7 10 9 8 9 10 9 7 7 8 10 11 8 6 15 8 6 7 8 8 6 5 5 5 5 4 3 4 6 5 3 4 8 7 6 5 2 7 6 8 8 12 13 12
4 5 7 6 12 11 11 10 11 10 9 7 6 9 9 9 8 6 5 6 6 8 9 10 10 11 11 10 8 10 9 8 11 7 8 7 8 8 5 1 3 3 3 2 5 4 7 3 4 7 7 6 6 5 6 6 5 5 5 6 6 5 6 5 6 5 4 2 5 13 13 13 13 12
4 4 4 6 10 10 11 11 10 10 9 8 11 12 12 11 8 5 6 6 6 8 9 9 10 11 10 10 10 8 7 8 7 1 5 4 5 6 2 2 4 3 2 1 2 5 3 3 4 4 6 7 7 7 6 5 6 5 5 5 4 1 1 4 6 3 3 4 4 5 6 6 5 8
4 6 6 7 7 8 9 11 11 9 10 13 12 12 12 7 4 5 5 6 6 7 8 9 10 11 10 11 11 11 11 10 6 7 6 4 3 2 4 5 5 5 2 1 1 2 5 6 3 0 2 4 5 5 4 4 3 3 2 2 3 3 4 3 3 1 3 4 4 5 6 5 5 5
6 6 5 8 11 11 10 8 6 6 6 9 12 13 10 5 7 8 8 7 8 8 9 9 10 10 10 10 10 10 9 8 9 5 5 4 5 5 5 3 4 5 6 4 4 2 2 3 5 3 4 3 3 3 3 3 3 4 3 4 3 3 2 3 4 2 2 4 5 5 5 6 5 4
5 5 6 6 9 10 12 12 12 12 11 10 9 8 8 8 7 7 8 7 7 8 9 9 9 9 10 10 10 9 5 4 5 6 4 5 5 6 5 4 5 5 5 7 8 9 8 7 9 8 4 1 1 2 1 1 2 2 2 2 4 5 0 2 2 2 3 2 4 5 5 6 2 1
9 9 8 10 10 9 9 9 8 9 9 10 9 8 5 5 7 9 7 3 8 9 10 11 11 11 11 10 10 9 9 9 7 6 6 6 5 5 6 5 4 5 4 3 5 6 5 6 3 2 3 4 3 1 1 2 3 3 2 3 4 2 4 3 3 3 3 3 4 5 6 5 3 3
9 7 7 6 5 5 3 3 5 6 6 5 7 8 6 7 8 8 9 9 9 7 7 8 9 10 9 10 9 10 9 9 7 4 3 3 4 5 5 5 5 6 6 6 5 4 4 4 6 7 7 6 6 5 3 1 2 2 4 3 2 2 2 1 2 2 3 3 5 5 6 4 1 2
5 4 3 3 2 3 3 4 4 4 4 4 4 4 6 6 8 8 9 9 8 7 5 5 6 7 7 9 9 9 9 7 7 4 0 5 6 4 5 4 5 5 5 5 5 4 3 3 5 3 2 3 2 3 2 1 1 4 1 3 1 1 1 2 2 2 2 3 4 5 5 6 1 4
4 3 3 4 4 3 5 3 4 4 4 4 4 4 5 7 8 6 8 8 5 5 4 3 2 4 5 6 6 8 5 3 2 2 2 3 2 4 5 6 6 6 6 6 5 5 5 4 5 5 4 3 3 4 4 3 2 2 3 2 1 2 2 2 1 2 3 3 4 4 4 6 1 6
2 3 2 3 3 4 4 4 5 5 5 6 6 7 7 7 6 6 6 5 6 4 5 5 5 5 4 4 4 5 5 4 3 3 3 2 2 3 4 5 6 6 6 5 6 6 5 5 5 5 3 4 3 3 4 3 2 4 3 2 3 3 3 2 2 2 3 4 4 4 3 3 5 3
2 2 3 3 5 5 4 4 5 7 7 7 5 5 6 7 8 9 8 6 8 5 5 4 5 7 7 6 4 5 2 0 1 1 1 1 1 2 3 3 4 4 4 4 4 4 3 2 1 2 2 2 2 3 3 2 4 5 5 3 3 3 3 2 1 2 4 5 4 4 3 3 3 0
4 4 7 6 6 6 6 6 5 5 5 5 5 5 7 7 8 9 10 9 6 6 5 4 5 5 4 4 4 4 3 1 1 2 2 2 3 2 2 3 3 3 4 4 2 2 2 2 2 3 3 2 2 3 4 2 2 2 4 5 3 2 2 2 1 2 2 3 5 3 3 3 2 4
7 7 8 6 8 7 6 5 4 6 7 7 6 5 5 6 7 5 6 6 8 6 5 5 5 5 4 4 3 3 3 2 2 2 2 2 2 2 3 3 3 4 4 3 3 3 4 4 4 4 3 3 2 4 1 2 3 2 3 5 4 3 2 1 1 1 2 3 4 3 3 4 7 8
6 6 6 6 6 7 7 7 7 7 7 8 8 7 7 6 6 4 4 4 4 4 4 4 5 5 3 3 3 2 0 0 1 1 2 3 3 2 1 1 2 2 3 3 3 4 4 3 3 4 2 2 5 2 3 1 1 4 3 3 5 2 1 2 2 2 3 4 4 2 3 2 2 3
7 6 6 6 6 6 6 7 7 7 7 7 7 7 7 8 6 3 3 3 3 3 3 3 3 3 3 4 4 4 5 5 6 6 6 5 4 3 4 1 3 2 2 2 1 2 2 6 3 1 4 3 1 0 1 3 3 2 3 3 2 2 4 3 1 1 2 5 4 4 4 4 3 1
6 6 6 7 7 7 7 7 6 6 7 6 4 4 6 5 3 3 2 4 3 3 3 4 3 4 5 5 5 5 5 5 5 6 6 5 5 4 4 3 1 2 0 2 2 0 5 6 5 2 1 1 2 2 1 2 2 2 2 3 2 1 3 3 2 1 2 2 2 2 4 5 3 4
6 6 6 6 6 6 6 7 7 6 4 5 4 4 4 3 5 5 5 3 4 4 3 3 3 4 4 4 4 4 4 5 4 4 3 2 2 2 2 2 2 1 2 3 3 3 2 1 2 0 1 2 1 2 2 2 2 1 2 3 3 3 2 3 4 5 3 2 1 1 2 2 3 4
5 6 6 6 6 6 7 7 7 7 6 4 5 5 4 5 5 5 4 3 3 3 3 4 4 4 3 3 3 3 3 2 2 2 2 1 1 2 2 2 3 3 3 2 1 0 0 0 0 1 2 3 3 2 2 2 2 2 1 1 4 3 3 3 3 4 4 5 6 7 7 4 3 1
5 6 6 6 5 5 6 6 6 7 5 4 4 5 4 4 3 3 3 3 4 4 5 5 4 4 5 5 4 3 2 2 1 0 0 1 1 0 1 0 0 0 0 0 0 1 1 1 2 3 3 1 0 1 1 2 0 0 1 1 4 5 3 3 2 2 2 2 7 11 8 6 7 7
Wind_Direction
180 199 183 228 206 212 211 193 169 180 196 165 163 190 192 168 157 167 155 155 133 159 150 147 141 145 145 138 135 146 156 151 174 169 150 157 157 152 145 137 133 131 139 133 143 137 138 109 76 78 46 55 25 46 58 52 37 25 33 41 34 29 29 15 10 36 26 24 25 24 17 12 10 10
181 199 192 187 209 257 229 195 161 151 170 196 178 212 186 188 156 174 165 141 159 148 162 152 147 158 153 151 154 165 156 160 200 174 158 163 161 151 168 163 165 161 157 162 167 177 180 175 218 238 215 207 203 264 273 295 38 314 34 35 20 26 20 14 3 17 26 15 11 15 12 9 2 1
201 193 196 191 193 223 218 190 190 159 170 189 182 222 162 236 160 165 178 150 160 153 179 149 149 159 159 162 165 175 158 169 202 217 159 179 142 160 177 181 177 181 180 177 189 191 202 215 223 228 253 225 221 245 248 238 247 223 177 107 333 10 15 16 2 4 17 8 1 1 0 360 356 351
180 194 195 188 175 204 190 195 185 176 183 174 188 185 239 155 240 181 178 158 138 161 171 145 151 159 162 165 170 180 155 167 194 215 197 143 148 170 183 188 188 190 185 187 192 199 196 207 217 214 222 222 227 247 207 239 213 182 176 164 198 337 9 21 13 2 5 2 356 355 352 350 346 341
190 201 194 187 174 207 187 171 185 182 186 175 202 196 205 141 190 200 164 162 141 150 160 162 166 157 165 175 178 181 165 161 191 226 180 146 171 183 199 186 194 195 191 187 190 194 195 195 207 199 206 207 212 203 194 194 172 174 178 178 162 211 303 2 33 5 356 355 353 350 347 344 336 334
208 185 199 193 176 209 170 185 194 185 178 182 203 174 188 163 191 211 192 142 147 153 173 182 179 154 185 185 185 181 174 168 190 202 204 170 197 206 213 202 189 195 192 188 187 189 190 188 192 183 188 200 193 182 176 162 165 164 162 159 164 175 129 18 23 12 359 353 351 349 346 340 334 326
207 193 198 181 180 196 174 192 197 180 181 193 205 166 189 160 190 210 241 144 154 162 175 190 191 166 184 217 183 191 184 186 191 201 210 206 200 209 208 228 191 186 190 186 187 187 185 184 182 180 186 186 182 173 162 158 146 140 144 146 157 130 100 67 35 24 3 357 355 354 345 339 333 330
202 199 201 201 180 186 188 180 202 174 193 211 196 162 190 153 195 188 300 167 156 174 168 195 205 167 182 210 218 190 189 191 200 203 205 215 219 211 211 221 233 176 181 181 185 186 185 183 179 179 183 181 176 168 163 156 146 141 140 140 134 134 137 99 93 47 24 360 344 336 347 341 336 336
184 192 199 211 175 196 189 173 207 179 192 217 166 185 178 178 170 193 211 220 167 174 179 174 230 190 174 197 217 212 195 188 203 210 219 217 215 219 230 211 90 137 160 170 179 187 186 183 179 179 181 180 174 169 165 161 155 149 146 142 136 132 121 109 95 106 214 306 297 339 347 346 340 333
168 182 167 212 190 192 201 185 204 187 193 213 187 183 191 183 163 185 198 223 241 250 207 174 184 267 181 190 204 222 209 206 197 205 215 227 237 237 235 147 132 138 164 176 174 186 197 189 182 181 180 180 175 170 168 163 158 155 149 145 141 141 144 148 150 159 202 235 324 325 335 341 335 333
169 184 172 167 181 195 175 204 209 198 202 212 225 179 207 202 162 185 184 211 215 227 258 244 191 187 218 223 200 212 230 216 229 222 220 237 228 217 219 219 160 158 166 173 166 183 208 174 186 181 186 180 177 174 170 167 163 160 159 154 156 156 155 156 159 168 206 239 272 290 294 319 326 332
184 197 165 177 188 190 188 185 213 214 204 209 227 198 206 244 168 173 190 220 215 203 221 235 246 218 208 197 236 239 215 223 220 231 244 229 209 217 208 213 228 185 166 165 179 167 173 157 169 162 189 188 182 178 175 175 169 170 165 162 162 162 166 172 169 178 192 232 259 273 292 294 311 319
197 204 191 199 68 56 48 50 43 33 14 232 215 223 229 228 232 202 203 211 224 232 219 216 230 237 219 221 205 216 245 241 245 223 223 245 266 271 250 197 199 226 203 184 197 185 185 183 185 188 191 193 187 188 190 178 181 173 169 171 169 171 176 172 182 184 200 238 258 273 286 300 310 322
220 207 204 89 72 52 47 41 34 24 6 16 27 340 275 238 227 230 237 228 224 229 229 229 223 222 232 224 229 223 219 241 251 248 257 261 250 237 251 265 235 218 240 231 216 207 182 196 192 196 206 184 183 190 200 190 182 175 176 173 172 175 171 181 185 197 208 219 250 260 295 313 319 324
219 223 228 134 105 124 96 76 52 351 357 10 16 10 28 34 13 276 232 234 246 239 238 233 232 234 238 237 235 233 226 226 239 243 247 253 255 259 256 255 249 230 222 237 229 248 191 187 207 206 216 186 182 202 200 188 166 167 175 171 173 169 175 185 191 202 210 224 249 266 286 300 307 312
219 213 213 202 152 192 171 173 157 159 185 316 356 9 360 350 350 125 146 297 273 259 257 253 252 248 240 241 236 243 245 237 233 236 242 244 252 257 252 248 256 257 170 202 224 233 234 188 208 225 231 174 182 200 178 161 159 165 169 171 170 173 175 190 208 210 225 234 249 275 291 300 306 308
219 197 184 202 189 147 114 220 202 182 170 177 169 295 312 279 273 295 274 183 221 308 308 283 267 265 269 271 261 255 268 286 272 257 247 251 252 251 254 259 263 260 167 200 216 232 232 234 200 229 230 240 150 118 141 149 155 162 169 171 173 172 183 199 213 224 232 245 252 287 295 299 303 305
300 312 237 198 194 171 179 219 232 248 227 161 186 208 233 250 222 214 250 265 253 206 252 287 288 292 295 286 285 273 255 250 253 251 247 244 253 251 252 263 264 247 157 206 212 235 234 239 212 219 234 230 142 158 148 153 158 164 171 172 170 176 184 200 215 227 240 245 266 276 289 293 294 296
236 201 221 258 258 215 91 31 4 330 296 271 261 248 242 244 254 248 239 225 241 248 248 264 277 281 281 291 298 308 296 268 256 256 265 268 263 265 268 195 229 176 193 210 219 246 244 238 237 223 218 226 217 157 159 160 164 170 170 169 170 173 189 192 209 227 236 248 247 267 273 282 285 287
194 204 218 225 239 65 64 15 26 28 2 331 292 275 261 261 255 253 241 245 205 252 263 258 264 273 334 29 328 326 316 266 246 258 263 259 260 256 253 253 237 243 216 209 226 242 251 251 258 257 223 219 245 137 160 165 170 170 165 168 173 184 186 193 210 221 229 228 232 245 258 262 272 279
204 51 31 5 318 73 58 22 25 17 1 303 275 266 271 267 267 264 256 190 192 215 321 343 348 340 334 328 326 319 308 291 284 272 263 257 252 254 257 256 256 248 237 228 216 237 255 255 260 259 240 231 245 211 157 167 172 163 163 169 180 183 189 199 207 220 223 224 229 233 243 253 263 280
96 58 43 31 52 62 48 27 34 19 4 290 280 274 275 276 272 272 298 33 39 43 238 253 272 283 290 292 296 293 284 278 268 241 250 243 259 263 289 277 267 252 243 195 209 205 242 249 244 240 223 240 244 248 147 141 147 155 171 185 188 192 196 196 209 221 222 226 229 234 240 257 286 283
122 93 59 51 55 58 45 38 33 25 7 328 302 315 295 282 274 294 358 331 358 336 312 299 290 271 254 254 249 253 251 248 259 250 249 253 249 242 232 241 267 263 252 208 164 211 220 220 228 247 213 227 239 205 165 143 156 177 186 194 200 202 197 199 219 223 224 227 233 232 244 265 270 287
176 116 100 68 53 52 43 41 33 25 17 355 335 324 307 296 318 9 334 334 326 303 268 263 265 266 270 265 239 240 242 228 222 231 238 245 252 254 252 238 212 266 271 127 168 199 211 202 222 210 205 222 234 220 160 141 165 176 195 196 197 190 191 214 229 230 226 227 222 227 232 231 245 287
336 337 93 88 68 60 50 43 27 29 14 354 322 304 297 333 348 328 320 321 320 300 288 275 264 263 263 264 266 268 257 239 218 225 231 239 242 248 259 273 268 268 267 193 183 201 210 199 215 204 201 210 227 236 158 198 181 189 194 202 225 146 188 211 227 226 212 216 205 209 223 239 241 244
339 349 55 64 42 34 23 11 9 352 344 329 291 287 297 314 325 326 306 298 292 285 277 266 257 249 250 251 242 240 260 272 250 208 215 223 235 242 248 253 259 264 252 178 178 204 210 219 211 205 214 237 244 238 242 215 198 190 199 189 210 182 192 217 223 264 177 173 192 192 218 227 234 235
332 340 349 34 14 360 1 356 343 335 327 301 274 281 291 294 311 298 278 283 285 276 274 273 272 268 264 254 238 233 237 256 266 236 204 199 217 232 255 46 343 349 17 125 248 287 257 285 224 200 205 177 190 200 217 229 226 213 185 175 194 225 228 234 251 253 316 238 181 180 210 227 233 224
310 315 30 348 343 349 335 319 316 316 305 277 278 282 282 283 285 281 278 270 270 273 268 266 265 263 264 268 274 267 246 234 230 313 253 189 196 212 139 74 54 21 62 183 219 253 290 258 203 198 178 176 190 208 225 212 225 217 209 209 214 226 273 257 254 311 290 271 294 171 206 239 218 212
1 15 325 327 307 296 292 288 292 283 274 274 271 266 266 269 271 274 274 268 265 267 264 264 264 261 256 254 255 263 264 257 221 164 219 190 194 141 86 69 75 79 55 82 204 15 28 355 338 308 210 206 213 224 230 256 254 227 208 231 229 213 241 302 16 313 296 301 305 300 297 303 292 288
304 289 275 268 273 279 272 273 268 262 265 257 261 268 266 266 265 259 262 266 264 266 267 264 264 269 271 267 266 263 272 273 264 208 187 181 163 130 113 95 64 60 61 38 31 354 168 206 265 185 209 201 214 230 227 235 227 248 246 240 244 282 265 258 277 333 297 282 282 291 289 292 291 306
246 245 232 261 262 262 268 267 273 276 279 273 250 234 235 242 254 256 248 264 290 290 291 291 290 293 296 294 298 286 284 253 219 203 201 200 180 176 175 158 141 108 72 49 35 27 29 30 17 357 343 288 180 233 240 225 255 283 295 264 249 252 246 41 44 261 305 323 300 287 285 274 127 124
322 312 287 255 246 245 244 245 235 233 235 240 241 257 270 237 233 250 282 291 277 277 280 284 293 297 297 296 290 290 278 274 278 260 230 230 205 158 147 147 150 145 127 95 85 62 52 59 65 8 347 352 357 29 168 211 210 213 251 258 277 336 36 7 330 315 332 320 283 276 266 271 223 175
315 306 288 298 305 312 319 321 324 333 334 331 328 326 314 306 314 316 307 297 299 303 307 301 302 299 300 296 297 287 279 276 265 265 248 212 196 163 178 187 185 174 167 153 124 91 75 71 44 35 22 10 16 18 360 7 321 294 274 293 104 58 51 253 262 281 315 290 279 277 283 272 271 80
290 277 278 291 321 337 338 345 342 336 335 329 322 317 326 312 299 303 306 300 300 309 304 314 312 307 305 300 293 287 286 287 282 312 266 227 236 194 186 163 148 136 133 129 124 122 115 86 65 47 50 16 16 21 38 8 320 285 274 36 348 64 297 280 261 258 243 257 284 290 285 283 177 132
241 277 347 356 349 340 340 334 327 327 316 315 316 309 309 310 309 303 296 299 303 302 297 277 276 279 281 282 287 283 278 293 311 105 155 117 151 164 148 151 161 160 152 150 157 158 144 144 165 168 159 183 189 182 185 218 239 246 277 272 238 235 241 239 254 245 247 252 262 274 288 286 121 122
327 20 351 347 340 341 335 338 335 332 334 334 328 326 323 319 318 311 297 322 330 324 315 309 293 279 267 263 282 298 299 287 231 191 163 150 159 163 175 171 156 152 158 170 174 153 158 167 189 198 188 195 201 196 189 225 4 293 249 221 229 221 222 240 213 250 260 259 247 242 265 285 290 270
316 5 358 348 342 340 338 339 342 338 329 324 324 323 323 319 314 310 316 334 320 328 329 320 304 302 313 324 309 286 296 17 75 66 84 105 75 66 77 83 122 145 131 108 116 124 139 173 348 320 287 253 234 253 132 150 271 303 313 263 226 207 236 201 238 271 264 272 275 269 278 294 279 348
341 2 355 336 338 338 338 328 326 325 319 319 317 317 312 309 305 309 319 318 322 322 334 336 334 328 317 314 306 291 267 236 149 141 149 127 135 139 121 115 120 136 136 135 126 120 121 186 177 215 239 271 266 243 135 148 173 209 268 287 217 221 205 198 228 244 265 269 261 270 284 272 290 94
8 350 340 345 341 339 336 337 333 324 321 320 317 310 313 311 315 317 323 332 338 344 342 340 334 339 343 333 314 300 264 238 210 172 143 138 135 129 136 148 151 143 121 134 159 188 198 214 216 226 227 246 258 55 31 152 178 158 196 273 295 206 214 208 252 267 260 261 267 298 292 92 89 111
1 346 344 346 346 346 344 341 337 336 333 326 319 323 327 327 325 340 4 3 354 351 343 335 347 342 324 323 303 300 323 182 181 144 139 138 132 131 157 154 126 129 163 173 184 192 193 209 32 25 341 70 54 28 356 14 128 156 173 230 276 301 69 39 12 339 298 312 313 294 288 173 176 163
356 345 352 350 348 344 342 344 343 339 333 334 327 335 328 325 328 360 344 11 354 353 356 8 9 353 22 27 28 47 51 41 38 32 31 37 37 36 6 7 146 187 174 134 233 219 97 70 140 149 16 54 9 316 226 233 221 196 180 178 142 58 87 31 343 319 323 333 323 308 293 291 296 207
356 353 353 357 352 354 353 348 345 343 340 333 329 330 333 316 316 287 319 46 13 29 34 35 36 39 37 30 38 45 56 51 48 41 29 25 23 12 2 6 35 354 30 139 167 202 91 101 74 51 242 249 235 245 233 220 218 189 167 142 143 160 116 111 74 102 275 290 301 307 325 322 324 291
4 359 2 2 359 354 356 348 346 349 346 335 329 342 330 343 27 18 24 24 27 36 41 51 50 45 42 39 35 40 47 47 51 55 52 46 39 20 344 318 335 3 13 43 47 14 16 83 123 134 186 204 206 231 240 240 246 183 159 162 147 163 176 169 217 210 193 142 166 254 322 336 334 312
11 6 8 8 8 8 2 354 355 357 1 352 358 1 17 19 33 28 27 31 48 57 66 65 58 52 50 51 55 58 57 52 42 40 47 47 40 4 355 10 357 21 28 50 52 187 277 249 182 261 245 226 199 212 219 230 226 194 193 131 132 162 167 173 193 208 224 219 227 225 232 233 246 294
20 14 17 18 20 19 13 2 355 1 14 14 20 19 26 42 45 59 60 64 65 57 46 46 48 49 49 46 43 39 33 34 53 97 198 204 181 126 47 356 163 101 207 97 287 227 201 220 214 202 242 256 267 241 248 263 326 333 273 170 160 189 175 169 195 216 238 234 206 213 224 194 201 215